EN

Hourly Weather Kulan

Today, 23 January, Saturday

Time Temperature Precipitation Wind Pressure Humidity
00:00 -14°C° 0 mm 3 mps 696 mmHg 88%
01:00 -14°C° 0 mm 4 mps 696 mmHg 87%
02:00 -14°C° 0 mm 4 mps 696 mmHg 86%
03:00 -14°C° 0.2 mm 5 mps 696 mmHg 88%
04:00 -14°C° 0.2 mm 6 mps 696 mmHg 90%
05:00 -14°C° 0.2 mm 7 mps 696 mmHg 91%
06:00 -14°C° 0.2 mm 6 mps 696 mmHg 91%
07:00 -14°C° 0.2 mm 6 mps 696 mmHg 91%
08:00 -14°C° 0.2 mm 6 mps 697 mmHg 91%
09:00 -13°C° 0.1 mm 7 mps 697 mmHg 85%
10:00 -12°C° 0.1 mm 8 mps 697 mmHg 80%
11:00 -11°C° 0.1 mm 9 mps 697 mmHg 75%
12:00 -10°C° 0.1 mm 10 mps 697 mmHg 74%
13:00 -10°C° 0.1 mm 10 mps 697 mmHg 73%
14:00 -9°C° 0.1 mm 11 mps 696 mmHg 72%
15:00 -9°C° 0.1 mm 11 mps 696 mmHg 74%
16:00 -9°C° 0.1 mm 10 mps 696 mmHg 75%
17:00 -10°C° 0 mm 9 mps 697 mmHg 76%
18:00 -10°C° 0.2 mm 9 mps 697 mmHg 77%
19:00 -10°C° 0.2 mm 9 mps 698 mmHg 79%
20:00 -10°C° 0.2 mm 9 mps 698 mmHg 80%
21:00 -10°C° 0.1 mm 9 mps 698 mmHg 79%
22:00 -10°C° 0.1 mm 8 mps 698 mmHg 79%
23:00 -10°C° 0.1 mm 8 mps 698 mmHg 78%

Tomorrow, 24 January, Sunday

Time Temperature Precipitation Wind Pressure Humidity
00:00 -9°C° 0 mm 7 mps 698 mmHg 80%
01:00 -10°C° 0 mm 6 mps 698 mmHg 81%
02:00 -10°C° 0 mm 5 mps 698 mmHg 83%
03:00 -10°C° 0.1 mm 6 mps 698 mmHg 86%
04:00 -10°C° 0.1 mm 5 mps 698 mmHg 87%
05:00 -9°C° 0.1 mm 4 mps 698 mmHg 88%
06:00 -8°C° 0.1 mm 3 mps 698 mmHg 89%
07:00 -8°C° 0.1 mm 3 mps 699 mmHg 90%
08:00 -7°C° 0.1 mm 2 mps 699 mmHg 90%
09:00 -6°C° 0 mm 2 mps 699 mmHg 90%
10:00 -4°C° 0 mm 1 mps 699 mmHg 90%
11:00 -3°C° 0 mm 1 mps 699 mmHg 90%
12:00 -2°C° 0 mm 1 mps 698 mmHg 89%
13:00 -2°C° 0 mm 1 mps 698 mmHg 89%
14:00 -2°C° 0 mm 1 mps 698 mmHg 88%
15:00 -3°C° 0 mm 1 mps 697 mmHg 89%
16:00 -4°C° 0 mm 1 mps 697 mmHg 89%
17:00 -6°C° 0 mm 1 mps 697 mmHg 89%
18:00 -6°C° 0 mm 1 mps 697 mmHg 85%
19:00 -6°C° 0 mm 1 mps 697 mmHg 80%
20:00 -7°C° 0 mm 1 mps 697 mmHg 76%
21:00 -8°C° 0 mm 2 mps 696 mmHg 73%
22:00 -7°C° 0 mm 2 mps 696 mmHg 70%
23:00 -7°C° 0 mm 2 mps 696 mmHg 66%

Day after tomorrow, 25 January, Monday

Time Temperature Precipitation Wind Pressure Humidity
00:00 -7°C° 0 mm 2 mps 696 mmHg 65%
01:00 -7°C° 0 mm 2 mps 696 mmHg 64%
02:00 -8°C° 0 mm 2 mps 695 mmHg 63%
03:00 -8°C° 0 mm 2 mps 695 mmHg 63%
04:00 -7°C° 0 mm 2 mps 695 mmHg 62%
05:00 -7°C° 0 mm 2 mps 695 mmHg 61%
06:00 -7°C° 0 mm 2 mps 695 mmHg 62%
07:00 -7°C° 0 mm 2 mps 695 mmHg 62%
08:00 -7°C° 0 mm 2 mps 695 mmHg 62%
09:00 -6°C° 0 mm 2 mps 695 mmHg 66%
10:00 -3°C° 0 mm 1 mps 695 mmHg 69%
11:00 -1°C° 0 mm 1 mps 696 mmHg 73%
12:00 -1°C° 0 mm 1 mps 695 mmHg 75%
13:00 0°C° 0 mm 1 mps 695 mmHg 77%
14:00 0°C° 0 mm 1 mps 695 mmHg 80%
15:00 -1°C° 0 mm 1 mps 695 mmHg 80%
16:00 -3°C° 0 mm 1 mps 694 mmHg 81%
17:00 -4°C° 0 mm 1 mps 694 mmHg 81%
18:00 -7°C° 0 mm 2 mps 694 mmHg 79%
19:00 -7°C° 0 mm 2 mps 694 mmHg 76%
20:00 -7°C° 0 mm 2 mps 694 mmHg 74%
21:00 -7°C° 0 mm 2 mps 694 mmHg 72%
22:00 -7°C° 0 mm 2 mps 694 mmHg 70%
23:00 -7°C° 0 mm 2 mps 694 mmHg 69%

26 January, Tuesday

Time Temperature Precipitation Wind Pressure Humidity
00:00 -7°C° 0 mm 2 mps 694 mmHg 67%
01:00 -7°C° 0 mm 2 mps 694 mmHg 66%
02:00 -7°C° 0 mm 2 mps 694 mmHg 64%
03:00 -7°C° 0 mm 2 mps 694 mmHg 63%
04:00 -7°C° 0 mm 2 mps 694 mmHg 61%
05:00 -6°C° 0 mm 1 mps 694 mmHg 59%
06:00 -7°C° 0 mm 2 mps 694 mmHg 59%
07:00 -7°C° 0 mm 2 mps 694 mmHg 59%
08:00 -7°C° 0 mm 2 mps 694 mmHg 59%
09:00 -3°C° 0 mm 1 mps 694 mmHg 62%
10:00 -2°C° 0 mm 1 mps 695 mmHg 66%
11:00 0°C° 0 mm 1 mps 695 mmHg 70%
12:00 0°C° 0 mm 1 mps 695 mmHg 73%
13:00 +1°C° 0 mm 1 mps 695 mmHg 75%
14:00 +1°C° 0 mm 1 mps 694 mmHg 78%
15:00 0°C° 0 mm 1 mps 694 mmHg 77%
16:00 -1°C° 0 mm 1 mps 694 mmHg 77%
17:00 -5°C° 0 mm 2 mps 694 mmHg 76%
18:00 -5°C° 0 mm 2 mps 694 mmHg 73%
19:00 -6°C° 0 mm 2 mps 694 mmHg 70%
20:00 -6°C° 0 mm 2 mps 694 mmHg 68%
21:00 -6°C° 0 mm 2 mps 694 mmHg 65%
22:00 -6°C° 0 mm 2 mps 694 mmHg 63%
23:00 -6°C° 0 mm 2 mps 694 mmHg 61%

27 January, Wednesday

Time Temperature Precipitation Wind Pressure Humidity
00:00 -6°C° 0 mm 2 mps 694 mmHg 58%
01:00 -6°C° 0 mm 2 mps 694 mmHg 56%
02:00 -6°C° 0 mm 2 mps 693 mmHg 54%
03:00 -6°C° 0 mm 2 mps 693 mmHg 53%
04:00 -6°C° 0 mm 2 mps 694 mmHg 52%
05:00 -6°C° 0 mm 2 mps 694 mmHg 52%
06:00 -6°C° 0 mm 2 mps 694 mmHg 52%
07:00 -6°C° 0 mm 2 mps 694 mmHg 52%
08:00 -6°C° 0 mm 2 mps 694 mmHg 52%
09:00 -4°C° 0 mm 2 mps 694 mmHg 57%
10:00 -3°C° 0 mm 2 mps 694 mmHg 62%
11:00 +1°C° 0 mm 1 mps 695 mmHg 67%
12:00 +1°C° 0 mm 1 mps 694 mmHg 70%
13:00 +2°C° 0 mm 1 mps 694 mmHg 73%
14:00 +2°C° 0 mm 1 mps 694 mmHg 76%
15:00 +1°C° 0 mm 1 mps 694 mmHg 73%
16:00 -2°C° 0 mm 2 mps 694 mmHg 71%
17:00 -4°C° 0 mm 2 mps 694 mmHg 69%
18:00 -4°C° 0 mm 2 mps 694 mmHg 66%
19:00 -5°C° 0 mm 2 mps 694 mmHg 62%
20:00 -5°C° 0 mm 2 mps 694 mmHg 58%
21:00 -5°C° 0 mm 2 mps 694 mmHg 56%
22:00 -5°C° 0 mm 2 mps 694 mmHg 53%
23:00 -5°C° 0 mm 2 mps 694 mmHg 50%

28 January, Thursday

Time Temperature Precipitation Wind Pressure Humidity
00:00 -5°C° 0 mm 2 mps 694 mmHg 49%
01:00 -5°C° 0 mm 2 mps 694 mmHg 48%
02:00 -5°C° 0 mm 2 mps 694 mmHg 48%
03:00 -5°C° 0 mm 2 mps 693 mmHg 47%
04:00 -5°C° 0 mm 2 mps 693 mmHg 47%
05:00 -5°C° 0 mm 2 mps 693 mmHg 47%
06:00 -5°C° 0 mm 2 mps 693 mmHg 47%
07:00 -6°C° 0 mm 3 mps 693 mmHg 47%
08:00 -6°C° 0 mm 3 mps 693 mmHg 47%
09:00 -4°C° 0 mm 2 mps 693 mmHg 54%
10:00 -2°C° 0 mm 2 mps 693 mmHg 60%
11:00 -1°C° 0 mm 2 mps 694 mmHg 66%
12:00 -1°C° 0 mm 2 mps 693 mmHg 68%
13:00 +1°C° 0 mm 2 mps 693 mmHg 70%
14:00 +1°C° 0 mm 2 mps 693 mmHg 72%
15:00 -1°C° 0 mm 3 mps 692 mmHg 70%
16:00 -2°C° 0 mm 3 mps 692 mmHg 67%
17:00 -4°C° 0 mm 3 mps 691 mmHg 65%
18:00 -5°C° 0 mm 3 mps 691 mmHg 61%
19:00 -5°C° 0 mm 3 mps 691 mmHg 57%
20:00 -6°C° 0 mm 3 mps 691 mmHg 53%
21:00 -5°C° 0 mm 3 mps 691 mmHg 51%
22:00 -5°C° 0 mm 3 mps 691 mmHg 49%
23:00 -4°C° 0 mm 3 mps 691 mmHg 47%
Show more

We Need Your Consent

Meteoprog and our Service Providers may store and access personal data such as cookies, device identifiers or other similar technologies on your device and process such data to personalise content and ads, as well as provide social media features and to analyse the traffic.

  • Store and/or access information on your device

    Cookies, device identifiers or other information can be stored or accessed on your device for the purposes indicated above.

  • Personalised ads and content, ad and content measurement, audience insights, and products development

    Ads and content can be personalised based on a profile. More data can be added to better personalise ads and content. Ad and content performance can be measured. Insights about the audience who saw the ads and content can be derived. Such data can be used to develop or improve user’s experience, systems and software.

By clicking ‘I Agree’ you will allow the use of indicated cookies, device identifiers, web beacons or other similar technologies. Your settings can be changed in the browser on your device.

For certain purposes, legitimate interests may be relied on, rather than consent. You can read more about this in our Privacy and Cookie Policy.